Historyczne dane pomiarowe

Dodano dane terminowe – wersja testowa.

Dane z okresu 1951-2019

Wersja bazy: 1.34 [2019-03-16, lista zmian], aktualizacja planowana na 2019-04-15

Dane meteo z obszaru Polski uzyskane na podstawie danych udostępnionych przez Instytut Meteorologii i Gospodarki Wodnej – Państwowy Instytut Badawczy.

 

Wybierz Datę:    

       

TemperaturaWilgotnośćWiatrCiśnienieOpadyŚniegCzas trwania zjawisk
 Stacja t tx tn tng RH VA  wxwx mslp ppp RRR   cm mm wxwxwxwxwxwxwx
2019-06-06 23.0 29.1 17.3 13.0-- 3.0----- 0.0------------
2019-06-05 23.6 30.3 17.2 12.3-- 2.3----- 0.1------------
2019-06-04 22.6 29.2 15.1 11.0-- 2.3----- 0.0------------
2019-06-03 21.5 28.2 14.4 10.2-- 1.3----- 0.0------------
2019-06-02 19.8 26.3 14.1 9.2-- 3.0----- 0.0------------
2019-06-01 17.7 24.2 10.8 6.7-- 5.7----- 0.0------------
2019-05-31 16.3 22.1 10.7 5.4-- 6.7----- 0.1------------
2019-05-30 10.7 18.1 1.6 -2.9-- 1.7----- 0.0------------
2019-05-29 10.9 15.7 6.8 3.9-- 4.3----- 0.0------------
2019-05-28 14.5 19.3 11.9 10.8-- 8.0----- 3.3------------
2019-05-27 17.1 21.0 13.1 9.6-- 7.0----- 0.8------------
2019-05-26 14.9 18.8 10.6 6.5-- 6.0----- 0.0------------
2019-05-25 13.3 17.5 9.1 4.5-- 3.7----- 0.0------------
2019-05-24 14.0 19.6 7.6 4.3-- 3.7----- 0.0------------
2019-05-23 13.1 16.8 11.0 9.3-- 7.3----- 0.0------------
2019-05-22 17.2 22.6 14.5 11.1-- 5.0----- 3.7------------
2019-05-21 18.7 22.8 14.8 9.6-- 5.0----- 0.1------------
2019-05-20 18.0 23.4 13.7 10.1-- 6.0----- 2.1------------
2019-05-19 17.5 22.2 13.1 9.9-- 5.3----- 2.0------------
2019-05-18 16.3 22.1 10.6 6.3-- 5.3----- 0.4------------
2019-05-17 14.6 18.8 10.8 7.7-- 6.3----- 0.9------------
2019-05-16 11.8 15.0 8.0 5.7-- 8.0----- 15.6------------
2019-05-15 8.3 14.0 5.0 2.9-- 8.0----- 8.3------------
2019-05-14 7.1 12.2 1.8 -2.3-- 6.0----- 1.1------------
2019-05-13 8.3 12.3 4.3 1.7-- 5.7----- 1.8------------
2019-05-12 9.3 14.6 6.7 4.5-- 7.7----- 20.2------------
2019-05-11 12.0 16.3 7.0 2.9-- 6.7----- 3.3------------
2019-05-10 11.7 18.6 7.8 3.9-- 6.0----- 3.2------------
2019-05-09 10.6 13.6 8.8 6.3-- 8.0----- 2.3------------
2019-05-08 9.9 15.5 4.2 -1.0-- 5.3----- 0.0------------
2019-05-07 6.9 13.1 -0.6 -5.6-- 4.0----- 0.0------------
2019-05-06 6.9 13.8 -0.8 -6.5-- 4.0----- 0.0------------
2019-05-05 6.4 13.0 -1.9 -7.2-- 3.3----- 0.0------------
2019-05-04 5.5 8.7 2.6 -1.6-- 7.3----- 0.4------------
2019-05-03 8.0 15.1 4.3 1.3-- 5.0----- 0.0------------
2019-05-02 10.0 12.2 8.2 5.0-- 7.7----- 1.8------------
2019-05-01 10.3 19.0 2.7 -2.2-- 4.0----- 0.8------------
2019-04-30 11.5 20.3 4.6 1.3-- 0.7----- 0.0------------
2019-04-29 13.9 20.3 10.0 7.3-- 3.0----- 0.0------------
2019-04-28 10.7 14.8 7.7 4.0-- 7.3----- 3.0------------
2019-04-27 14.0 22.6 10.4 5.9-- 7.7----- 0.0------------
2019-04-26 19.1 26.8 11.8 6.3-- 4.0----- 0.0------------
2019-04-25 17.7 24.6 10.2 6.2-- 2.7----- 0.0------------
2019-04-24 15.3 19.7 11.6 8.3-- 6.3----- 0.0------------
2019-04-23 13.1 18.3 6.3 2.4-- 3.3----- 0.0------------
2019-04-22 10.2 17.6 2.7 -1.4-- 2.0----- 0.0------------
2019-04-21 10.8 20.3 1.2 -3.3-- 1.0----- 0.0------------
2019-04-20 10.2 19.2 2.5 -2.6-- 2.7----- 0.0------------
2019-04-19 10.9 20.3 2.4 -2.5-- 0.0----- 0.0------------
2019-04-18 11.6 19.5 2.2 -3.0-- 0.3----- 0.0------------
2019-04-17 10.7 18.4 3.6 -1.3-- 0.7----- 0.0------------
2019-04-16 6.2 13.5 -1.6 -5.7-- 0.7----- 0.0------------
2019-04-15 5.6 12.6 -1.1 -5.8-- 1.0----- 0.0------------
2019-04-14 7.0 12.8 2.6 0.5-- 3.3----- 0.0------------
2019-04-13 3.0 9.3 -2.0 -5.6-- 5.3----- 0.0------------
2019-04-12 3.0 6.8 0.8 -1.2-- 6.0----- 0.0------------
2019-04-11 1.1 4.6 -2.9 -6.4-- 6.3----- 0.0------------
2019-04-10 1.4 5.3 -3.6 -8.2-- 6.0----- 0.0------------
2019-04-09 4.3 8.1 2.5 0.6-- 6.3----- 0.0------------
2019-04-08 8.8 17.8 3.1 -2.0-- 2.3----- 0.1------------
188.8 ms

 

Źródłem pochodzenia danych jest Instytut Meteorologii i Gospodarki Wodnej – Państwowy Instytut Badawczy. Dane Instytutu Meteorologii i Gospodarki Wodnej – Państwowego Instytutu Badawczego zostały przetworzone.

Dane źródłowe można odnaleźć na stronie https://dane.imgw.pl